Weather History for Enid, OK

Change the Weather History Date:

Monday, August 26, 2013

  Actual Average Record
Temperature  
Mean Temperature 80 °F -  
Max Temperature 93 °F 90 °F 102 °F (1999)
Min Temperature 68 °F 68 °F 55 °F (2010)
Cooling Degree Days 16    
Growing Degree Days 30 (Base 50)    
Moisture  
Dew Point 69 °F    
Average Humidity 80    
Maximum Humidity 100    
Minimum Humidity 43    
Precipitation  
Precipitation 0.00 in - - ()
Sea Level Pressure  
Sea Level Pressure 30.13 in    
Wind  
Wind Speed 5 mph (SSE)    
Max Wind Speed 17 mph    
Max Gust Speed 25 mph    
Visibility 9 miles    
Events      
Averages and records for this station are not official NWS values.
T = Trace of Precipitation, MM = Missing Value Source: NWS Daily Summary

Daily Weather History Graph

Daily Weather History Graph

Search for Another Location

Airport:

Trip Planner

Search our weather history database for the weather conditions in past years. The results will help you decide how hot, cold, wet, or windy it might be!

Date:

Astronomy

Aug. 26, 2013 Rise Set
Actual Time 6:58 AM CDT 8:07 PM CDT
Civil Twilight 6:31 AM CDT 8:33 PM CDT
Nautical Twilight 5:59 AM CDT 9:05 PM CDT
Astronomical Twilight 5:26 AM CDT 9:38 PM CDT
Moon 11:30 PM CDT (8/26) 12:49 PM CDT (8/26)
Length of Visible Light 14h 02m
Length of Day
13h 09m
Waning Gibbous, 66% of the Moon is Illuminated
Aug 26
Waning Gibbous
Aug 28
Last Quarter
Sep 5
New
Sep 12
First Quarter
Sep 19
Full

Hourly Weather History & Observations

Time (CDT) Temp. Heat Index Dew Point Humidity Pressure Visibility Wind Dir Wind Speed Gust Speed Precip Events Conditions
12:15 AM 73.4 °F - 69.8 °F 88% 30.14 in 10.0 mi SSE 3.5 mph - N/A   Clear
12:35 AM 73.4 °F - 69.8 °F 88% 30.15 in 10.0 mi Calm Calm - N/A   Clear
12:55 AM 73.4 °F - 69.8 °F 88% 30.15 in 10.0 mi SSE 3.5 mph - N/A   Clear
1:15 AM 73.4 °F - 69.8 °F 88% 30.15 in 10.0 mi SSE 3.5 mph - N/A   Clear
1:35 AM 73.4 °F - 69.8 °F 88% 30.15 in 10.0 mi SSE 3.5 mph - N/A   Clear
1:55 AM 71.6 °F - 69.8 °F 94% 30.14 in 10.0 mi SSE 3.5 mph - N/A   Clear
2:15 AM 71.6 °F - 69.8 °F 94% 30.15 in 7.0 mi Calm Calm - N/A   Clear
2:35 AM 71.6 °F - 69.8 °F 94% 30.14 in 5.0 mi Calm Calm - N/A   Clear
2:55 AM 71.6 °F - 69.8 °F 94% 30.15 in 10.0 mi SE 4.6 mph - N/A   Clear
3:15 AM 71.6 °F - 69.8 °F 94% 30.15 in 10.0 mi SE 4.6 mph - N/A   Clear
3:35 AM 71.6 °F - 69.8 °F 94% 30.15 in 10.0 mi SE 5.8 mph - N/A   Clear
3:55 AM 69.8 °F - 69.8 °F 100% 30.15 in 10.0 mi SSE 4.6 mph - N/A   Clear
4:15 AM 69.8 °F - 69.8 °F 100% 30.15 in 7.0 mi SSE 3.5 mph - N/A   Clear
4:35 AM 69.8 °F - 69.8 °F 100% 30.15 in 10.0 mi Calm Calm - N/A   Clear
4:55 AM 69.8 °F - 69.8 °F 100% 30.14 in 7.0 mi Calm Calm - N/A   Clear
5:15 AM 69.8 °F - 68.0 °F 94% 30.14 in 7.0 mi Calm Calm - N/A   Clear
5:35 AM 69.8 °F - 68.0 °F 94% 30.14 in 5.0 mi Calm Calm - N/A   Clear
5:55 AM 68.0 °F - 68.0 °F 100% 30.15 in 4.0 mi Calm Calm - N/A   Clear
6:20 AM 68.0 °F - 68.0 °F 100% 30.15 in 7.0 mi SE 5.8 mph - N/A   Partly Cloudy
7:50 AM 71.6 °F - 71.6 °F 100% 30.17 in 10.0 mi SE 5.8 mph - N/A   Clear
8:50 AM 77.0 °F - 69.8 °F 78% 30.18 in 10.0 mi SSE 9.2 mph - N/A   Clear
10:50 AM 86.0 °F 89.4 °F 68.0 °F 55% 30.18 in 10.0 mi South 17.3 mph - N/A   Clear
11:50 AM 89.6 °F 93.4 °F 68.0 °F 49% 30.18 in 10.0 mi South 11.5 mph 18.4 mph N/A   Clear
12:55 PM 91.4 °F 95.4 °F 68.0 °F 46% 30.16 in 10.0 mi South 11.5 mph 20.7 mph N/A   Scattered Clouds
1:50 PM 91.4 °F 95.4 °F 68.0 °F 46% 30.14 in 10.0 mi SSE 12.7 mph 24.2 mph N/A   Scattered Clouds
2:50 PM 93.2 °F 97.7 °F 68.0 °F 44% 30.12 in 10.0 mi SSE 11.5 mph 19.6 mph N/A   Scattered Clouds
3:50 PM 93.2 °F 97.7 °F 68.0 °F 44% 30.10 in 10.0 mi SE 13.8 mph 25.3 mph N/A   Scattered Clouds
5:50 PM 91.4 °F 94.0 °F 66.2 °F 43% 30.08 in 10.0 mi SSE 13.8 mph 20.7 mph N/A   Scattered Clouds
6:50 PM 89.6 °F 93.4 °F 68.0 °F 49% 30.07 in 10.0 mi SSE 13.8 mph 19.6 mph N/A   Clear
7:50 PM 86.0 °F 89.4 °F 68.0 °F 55% 30.07 in 10.0 mi SE 13.8 mph - N/A   Clear
8:50 PM 78.8 °F - 68.0 °F 69% 30.08 in 10.0 mi SE 11.5 mph - N/A   Clear
9:15 PM 77.0 °F - 68.0 °F 74% 30.09 in 10.0 mi SSE 6.9 mph - N/A   Clear
9:35 PM 77.0 °F - 68.0 °F 74% 30.09 in 10.0 mi SE 6.9 mph - N/A   Clear
9:55 PM 77.0 °F - 68.0 °F 74% 30.09 in 10.0 mi SE 6.9 mph - N/A   Clear
10:15 PM 75.2 °F - 68.0 °F 78% 30.09 in 10.0 mi SE 5.8 mph - N/A   Clear
10:35 PM 73.4 °F - 68.0 °F 83% 30.09 in 10.0 mi SE 6.9 mph - N/A   Clear
10:55 PM 73.4 °F - 68.0 °F 83% 30.09 in 10.0 mi SSE 5.8 mph - N/A   Clear
11:15 PM 73.4 °F - 68.0 °F 83% 30.09 in 10.0 mi SE 5.8 mph - N/A   Clear
11:35 PM 71.6 °F - 68.0 °F 88% 30.09 in 10.0 mi SSE 4.6 mph - N/A   Clear
11:55 PM 71.6 °F - 68.0 °F 88% 30.09 in 10.0 mi Calm Calm - N/A   Clear